SCP
1 1 0 0 0 0 0 0 0 0 0 0 0 0 0 0 0 0 0 0 0 0 0 0 0 0 0 0 0 0 0 0 0 0 0 0 0 0 0 0 0 0 0 0
1 0 0 0 0 0 0 0 0 0 0 0 0 0 0 0 0 0 0 0 0 0 0 0 0 0 0 0 0 0 0 0 0 0 0 0 0 0 0 0 0 0 0 0
0 0 0 0 0 0 0 0 0 0 0 0 0 0 0 0 0 0 0 0 0 0 0 0 0 0 0 0 0 0 0 0 0 0 0 0 0 0 0 0 0 0 0 0
0 0 0 0 0 0 0 0 0 0 0 0 0 0 0 0 0 0 0 0 0 0 0 0 0 0 0 0 0 0 0 0 0 0 0 0 0 0 0 0 0 0 0 0
0 0 0 0 0 0 0 0 0 0 0 0 0 0 0 0 0 0 0 0 0 0 0 0 0 0 0 0 0 0 0 0 0 0 0 0 0 0 0 0 0 0 0 0
0 0 0 0 0 0 0 0 0 0 0 0 0 0 0 0 0 0 0 0 0 0 0 0 0 0 0 0 0 0 0 0 0 0 0 0 0 0 0 0 0 0 0 0
0 0 0 0 0 0 0 0 0 0 0 0 0 0 0 0 0 0 0 0 0 0 0 0 0 0 0 0 0 0 0 0 0 0 0 0 0 0 0 0 0 0 0 0
0 0 0 0 0 0 0 0 0 0 0 0 0 0 0 0 0 0 0 0 0 0 0 0 0 0 0 0 0 0 1 0 0 0 0 0 0 0 0 0 0 0 0 0
0 0 0 0 0 0 0 0 0 0 0 0 0 0 0 0 0 0 0 0 0 0 0 0 0 0 0 0 0 0 0 0 1 1 1 1 0 0 0 0 0 0 0 0
0 0 0 0 0 0 0 0 0 0 0 0 0 0 0 0 0 0 0 0 0 0 0 0 0 0 0 0 0 0 0 0 0 1 1 1 1 1 0 0 0 0 0 0
0 0 0 0 0 0 0 0 0 0 0 0 0 0 0 0 0 0 0 0 0 0 0 0 0 0 0 0 0 0 0 0 0 0 1 1 1 1 1 1 0 0 0 0
0 0 0 0 0 0 0 0 0 0 0 0 0 0 0 0 0 0 0 0 0 0 0 0 0 0 0 0 0 0 0 0 0 0 0 0 0 1 1 1 1 0 0 0
0 0 0 0 0 0 0 0 0 0 0 0 0 0 0 0 0 0 0 0 0 0 0 0 0 0 0 0 0 0 0 0 0 0 0 0 0 0 1 1 1 1 1 0
0 0 0 0 0 0 0 0 0 0 0 0 0 0 0 0 0 0 0 0 0 0 0 0 0 0 0 0 0 0 0 0 0 0 0 0 0 0 0 1 1 1 1 1
0 0 0 0 0 0 0 0 0 0 0 0 0 0 0 0 0 0 0 0 0 0 0 0 0 0 0 0 0 0 0 0 0 0 0 0 0 0 0 0 1 1 1 1
0 0 0 0 0 0 0 0 0 0 0 0 0 0 0 0 0 0 0 0 0 0 0 0 0 0 0 0 0 0 0 0 0 0 0 0 0 0 0 0 0 0 0 1
0 0 0 0 0 0 0 0 0 0 0 0 0 0 0 0 0 0 0 0 0 0 0 0 0 0 0 0 0 0 0 0 0 0 0 0 0 0 0 0 0 0 0 0
0 0 0 0 0 0 0 0 0 0 0 0 0 0 0 0 0 0 0 0 0 0 0 0 0 0 0 0 0 0 0 0 0 0 0 0 0 0 0 0 0 0 0 0
0 0 0 0 0 0 0 0 0 0 0 0 0 0 0 0 0 0 0 0 0 0 0 0 0 0 0 0 0 0 0 0 0 0 0 0 0 0 0 0 0 0 0 0
0 0 0 0 0 0 0 0 0 0 0 0 0 0 0 0 0 0 0 0 0 0 0 0 0 0 0 0 0 0 0 0 0 0 0 0 0 0 0 0 0 0 0 0
0 0 0 0 0 0 0 0 0 0 0 0 0 0 0 0 0 0 0 0 0 0 0 0 0 0 0 0 0 0 0 0 0 0 0 0 0 0 0 0 0 0 0 0
0 0 0 0 0 0 0 0 0 0 0 0 0 0 0 0 0 0 0 0 0 0 0 0 0 0 0 0 0 0 0 0 0 0 0 0 0 0 0 0 0 0 0 0
0 0 0 0 0 0 0 0 0 0 0 0 0 0 0 0 0 0 0 0 0 0 0 0 0 0 0 0 0 0 0 0 0 0 0 0 0 0 0 0 0 0 0 0
0 0 0 0 0 0 0 0 0 0 0 0 0 0 0 0 0 0 0 0 0 0 0 0 0 0 0 0 0 0 0 0 0 0 0 0 0 0 0 0 0 0 0 0
0 0 0 0 0 0 0 0 0 0 0 0 0 0 0 0 0 0 0 0 0 0 0 0 0 0 0 0 0 0 0 0 0 0 0 0 0 0 0 0 0 0 0 0
0 0 0 0 0 0 0 0 0 0 0 0 0 0 0 0 0 0 0 0 0 0 0 0 0 0 0 0 0 0 0 0 0 0 0 0 0 0 0 0 0 0 0 0
Wind_Speed
7 8 14 16 15 6 7 7 7 6 4 6 11 13 12 10 8 9 10 10 10 11 11 9 10 10 9 10 11 13 13 12 10 7 8 8 9 8 7 8 9 10 9 10
8 17 15 9 10 9 7 7 7 4 3 5 8 13 11 11 11 11 12 12 12 11 9 8 7 7 9 10 11 11 12 12 11 11 9 6 6 6 7 6 8 10 10 11
17 8 11 10 10 14 14 12 9 5 2 2 4 9 10 9 9 10 10 11 10 12 12 10 8 8 8 9 10 10 11 12 12 11 5 3 3 2 4 7 8 10 12 12
13 8 9 12 13 14 16 11 8 6 4 5 4 8 9 8 10 12 12 11 12 11 10 9 8 7 8 9 8 9 10 10 9 10 8 9 9 10 10 8 8 8 10 12
12 10 12 16 15 14 6 7 9 8 7 6 5 8 10 6 11 13 12 12 12 11 10 9 8 8 7 7 6 7 7 8 8 8 10 10 10 10 6 5 7 8 9 11
9 6 11 11 8 10 5 4 3 4 5 13 14 10 12 9 12 8 9 11 11 10 8 7 6 5 5 4 4 4 5 6 6 7 9 10 11 10 7 7 8 8 7 8
10 9 6 6 9 8 8 7 5 7 9 12 9 10 14 9 9 10 11 11 10 9 8 7 6 5 4 4 3 3 4 5 5 6 7 9 10 9 10 8 8 7 6 7
13 12 14 9 12 13 15 14 11 10 8 5 6 14 12 8 9 9 10 9 8 7 7 7 7 6 4 4 4 4 4 4 3 4 5 6 7 6 6 7 7 7 7 8
13 10 6 10 8 12 12 13 9 4 2 4 8 8 9 5 7 8 8 7 8 7 6 5 5 4 4 3 3 4 3 3 2 3 3 4 4 5 6 6 6 6 6 6
7 6 6 7 5 9 9 9 6 9 9 10 8 8 8 7 10 9 9 9 8 6 5 5 4 3 3 3 2 2 2 2 1 1 1 1 2 3 4 5 5 6 7 6
6 6 4 8 14 15 10 12 9 7 7 8 7 9 9 11 12 12 11 10 9 8 7 5 4 3 3 3 3 3 3 2 2 1 1 1 2 2 3 3 5 6 6 7
8 6 7 9 6 8 10 12 13 11 9 7 7 11 5 8 9 10 10 7 6 6 5 4 4 3 3 3 2 2 2 2 1 1 1 2 2 3 3 4 5 5 6 6
9 8 7 5 5 7 11 12 14 9 6 8 9 11 3 4 5 6 6 6 5 5 4 3 3 3 3 3 2 2 2 2 1 2 2 2 3 3 4 5 5 5 6 7
8 6 10 14 9 9 11 14 15 13 11 13 16 15 8 5 6 5 5 6 6 6 5 4 3 3 3 3 2 2 1 1 2 2 2 2 3 4 5 5 5 6 6 7
6 7 7 7 5 7 9 13 18 20 18 15 16 19 17 11 10 8 6 6 6 6 6 6 5 4 3 3 2 2 1 1 1 1 1 2 4 4 5 5 6 6 6 7
7 6 5 7 7 7 9 13 17 20 20 19 15 18 14 10 7 7 8 8 8 8 8 7 6 5 4 3 2 1 1 0 0 1 1 3 4 4 5 6 6 7 7 7
6 6 5 7 3 2 13 17 18 16 15 18 23 23 11 9 11 12 12 11 11 10 9 7 6 6 5 4 3 2 1 0 0 1 2 3 4 5 6 6 7 7 8 8
8 7 5 4 4 14 12 9 13 16 17 17 16 14 14 14 11 9 9 11 11 10 9 8 6 5 4 3 2 2 1 1 0 1 2 3 4 6 6 6 7 7 7 8
9 9 6 6 9 10 10 7 12 14 17 16 18 18 13 8 4 7 8 9 10 9 7 6 5 4 3 3 2 2 1 1 1 2 3 4 4 6 7 7 8 7 7 8
9 9 7 6 7 11 12 8 8 8 14 13 15 17 14 9 8 11 8 7 7 6 5 4 4 3 3 2 2 2 0 0 1 3 4 4 5 6 7 8 8 7 7 9
9 9 12 10 10 11 11 5 8 11 13 8 11 14 13 14 13 8 5 5 6 6 5 5 5 4 3 2 2 1 0 2 3 4 4 5 5 6 7 7 7 7 8 9
11 9 10 9 10 14 7 8 12 10 5 5 7 9 10 9 6 4 5 5 5 5 4 5 4 3 2 2 2 1 2 3 4 4 5 6 6 6 6 7 7 7 8 9
11 11 8 10 11 6 5 8 6 4 5 5 4 5 6 5 5 4 4 4 4 4 4 4 4 3 2 2 2 1 3 4 4 5 6 6 7 6 6 6 8 7 6 6
5 4 6 7 9 7 5 3 3 3 4 3 3 3 4 5 4 4 4 3 4 4 3 3 3 3 2 2 2 2 4 4 4 5 7 6 7 7 6 5 5 6 6 7
7 5 6 8 7 3 5 4 4 2 1 1 1 2 3 5 4 4 4 3 3 3 2 3 3 1 1 2 3 3 4 4 5 5 6 6 6 7 7 6 5 7 7 7
6 7 9 9 7 6 6 3 2 2 1 1 2 2 2 4 5 4 4 3 3 2 2 2 2 1 2 3 3 3 3 3 4 5 6 5 5 6 6 7 8 10 11 14
Wind_Direction
180 191 206 203 202 199 177 188 210 220 215 199 227 243 249 252 246 244 245 243 242 244 245 240 232 224 216 210 205 203 201 201 192 191 198 204 215 215 214 216 214 211 211 209
188 218 212 189 194 209 213 216 222 246 231 218 244 253 249 242 239 235 238 241 241 244 250 244 234 220 210 208 207 207 206 201 197 200 199 199 200 211 216 217 217 214 214 213
206 211 182 183 190 203 219 218 211 214 282 270 284 278 251 248 238 242 240 238 238 234 237 238 232 225 214 211 208 206 206 204 203 201 188 181 180 206 208 217 220 218 216 217
224 223 179 189 202 197 226 213 203 209 212 246 211 270 257 237 247 244 242 240 241 240 236 231 225 221 215 215 209 206 203 202 202 195 192 194 204 217 221 219 221 219 217 220
214 194 192 204 204 190 208 177 194 208 216 245 225 252 266 226 238 241 239 238 238 235 230 228 224 218 214 210 203 203 201 202 199 196 200 205 217 226 229 220 223 223 221 221
220 200 200 208 199 187 164 130 158 195 206 240 220 222 262 212 220 227 231 235 235 230 225 225 222 209 210 207 195 194 193 203 199 198 204 209 218 225 229 229 228 229 227 225
214 218 211 175 171 180 172 164 195 211 217 237 196 214 249 221 214 213 224 232 231 221 211 209 208 203 201 192 189 185 186 206 205 202 208 215 222 224 228 231 233 234 233 231
197 214 203 193 188 188 194 187 197 205 216 243 188 225 248 229 223 223 228 227 219 213 204 200 201 197 194 188 184 181 184 205 209 209 219 224 228 230 237 238 238 237 238 238
195 218 186 195 177 169 185 206 201 184 194 232 231 253 285 241 232 229 225 214 212 207 199 193 192 183 178 174 181 181 181 197 212 215 220 227 231 236 245 249 244 246 250 251
176 203 201 184 164 196 184 169 167 198 205 228 239 233 231 215 218 222 215 211 210 201 190 179 174 169 163 161 157 136 142 169 202 215 222 242 247 249 254 257 258 257 257 256
176 186 199 176 193 191 176 187 190 194 199 206 237 248 217 205 205 209 213 210 200 195 189 182 170 160 147 127 116 110 101 93 69 37 353 335 308 299 290 279 278 275 273 268
182 179 214 220 223 202 195 196 190 202 213 208 234 257 234 209 211 207 210 204 192 184 182 174 166 151 132 123 120 115 110 100 78 36 12 341 326 326 317 303 298 297 292 286
167 181 195 216 230 209 212 209 207 207 199 207 220 253 252 212 217 211 197 188 182 176 174 167 160 159 160 154 145 132 119 107 69 42 24 1 348 336 320 309 306 305 299 295
173 193 205 213 205 185 206 212 207 205 217 226 228 245 253 241 234 221 199 192 187 187 181 175 179 181 177 167 161 150 131 114 83 50 24 357 336 324 313 310 309 305 300 297
174 209 224 237 227 195 209 214 211 216 220 226 234 238 244 232 225 221 208 198 191 195 196 191 189 192 186 173 169 159 147 99 71 57 7 324 317 320 321 318 312 307 302 296
178 200 205 239 232 223 234 226 220 222 225 232 244 251 244 235 217 215 210 201 202 207 205 200 193 189 188 181 176 165 164 189 74 36 322 319 325 326 322 317 312 309 304 299
181 172 188 233 228 255 241 222 217 221 223 224 235 243 240 227 216 211 207 203 205 207 203 198 196 193 188 184 174 176 201 217 35 323 317 328 326 320 315 314 313 309 306 304
185 189 195 209 194 229 240 210 206 221 230 227 234 242 235 230 226 216 206 202 206 204 201 198 193 191 186 176 164 162 148 117 6 326 326 330 325 314 311 310 306 305 303 301
188 188 193 200 229 255 274 231 199 209 237 227 233 240 242 235 229 240 217 200 201 200 198 197 189 179 171 164 156 133 109 53 0 330 323 320 316 310 308 306 303 303 302 299
193 190 195 202 215 230 244 224 193 189 246 234 224 233 232 205 220 240 218 195 196 188 177 174 159 143 143 143 125 120 127 353 315 310 307 305 303 300 299 298 298 297 295 293
182 196 206 213 227 247 248 219 148 191 235 231 217 227 222 215 226 228 185 172 172 167 160 151 143 143 149 133 118 120 332 304 305 306 302 300 297 295 293 294 294 295 295 296
189 193 201 196 216 240 223 168 189 217 232 234 222 223 218 221 212 187 169 163 160 155 147 139 131 126 116 107 104 54 317 315 319 314 308 305 301 298 295 294 295 295 295 295
204 200 195 202 219 232 192 199 217 207 218 236 227 227 202 195 186 172 165 154 143 133 124 119 122 114 84 69 78 6 318 331 329 319 310 305 304 300 296 294 296 297 291 289
236 204 194 219 236 232 229 233 247 212 210 217 204 198 178 177 170 157 146 132 117 109 109 102 99 92 49 28 27 354 333 333 321 308 307 308 309 307 303 295 290 290 290 290
213 190 201 228 240 253 259 238 235 214 155 132 111 124 152 151 149 148 142 133 125 112 94 86 93 85 7 357 347 341 337 331 319 308 307 310 307 304 303 297 288 288 280 275
207 200 205 224 218 209 230 221 183 160 175 197 159 121 101 131 142 137 133 128 119 103 81 68 54 23 333 331 323 323 326 325 316 309 308 306 304 302 302 304 302 292 287 292